SCP
0 1 2 4 5 5 4 3 3 2 2 1 1 1 0 0 0 0 0 0 1 1 1 1 1 0 0 0 0 0 0 0 0 0 0 0 0 0 0 0 0 0 0
0 1 2 3 3 3 3 3 2 2 1 1 1 1 0 0 0 0 0 0 0 1 1 2 1 1 0 0 0 0 0 0 0 0 0 0 0 0 0 0 0 0 0
1 1 1 1 2 2 2 2 1 1 1 0 0 1 1 0 0 0 0 0 0 0 1 2 1 1 0 0 0 0 0 0 0 0 0 0 0 0 0 0 0 0 0
1 1 1 1 1 1 1 1 1 1 0 0 0 0 0 0 0 0 0 0 0 0 1 1 1 1 0 0 0 0 0 0 0 0 0 0 0 0 0 0 0 0 0
1 1 1 1 1 1 0 0 0 0 0 0 0 0 0 0 0 0 0 0 0 0 0 0 1 1 0 0 0 0 0 0 0 0 0 0 0 0 0 0 0 0 0
1 1 1 1 1 1 1 0 0 0 0 0 0 0 0 0 0 0 0 0 0 0 0 0 1 1 1 0 0 0 0 0 0 0 0 0 0 0 0 0 0 0 0
1 1 1 1 1 1 1 1 1 0 0 0 0 0 0 0 0 0 0 0 0 0 0 0 0 1 1 1 0 0 0 0 0 0 0 0 0 0 0 0 0 0 0
1 1 1 1 1 1 1 1 1 1 1 0 0 0 0 0 0 0 0 0 0 0 0 0 0 1 1 1 0 0 0 0 0 0 0 0 0 0 0 0 0 0 0
1 1 1 1 1 1 1 1 1 1 1 1 1 1 0 0 0 0 0 0 0 0 0 0 0 0 1 1 0 0 0 0 0 0 0 0 0 0 0 0 0 0 0
1 1 1 1 1 1 1 1 1 1 1 1 1 1 1 1 0 0 0 0 0 0 0 0 0 0 0 0 0 0 0 0 0 0 0 0 0 0 0 0 0 0 0
1 1 1 1 1 1 1 1 1 1 1 2 2 2 1 1 1 0 0 0 0 0 0 0 0 0 0 0 0 0 0 0 0 0 0 0 0 0 0 0 0 0 0
1 1 1 2 2 2 2 2 2 2 2 2 2 2 2 1 1 1 1 1 0 0 0 0 0 0 0 0 0 0 0 0 0 0 0 0 0 0 0 0 0 0 0
1 1 2 2 3 3 3 3 3 3 2 2 2 2 2 1 1 1 1 1 0 0 0 0 0 0 0 0 1 0 0 0 0 0 0 0 0 0 0 0 0 0 0
2 2 2 3 3 4 4 4 3 2 2 2 2 2 2 1 1 1 1 1 0 0 0 0 0 0 0 0 0 0 0 0 0 0 0 0 0 0 0 0 0 0 0
2 3 3 3 4 4 4 3 2 2 1 1 2 1 1 1 1 1 1 0 0 0 0 0 0 0 0 0 0 0 0 0 0 0 0 0 0 0 0 0 0 0 0
2 2 3 3 3 3 3 2 2 1 1 1 2 2 2 1 1 1 1 0 0 0 0 0 0 0 0 0 0 0 0 0 0 0 0 0 0 0 0 0 0 0 0
1 1 2 2 2 2 2 2 1 1 1 2 2 2 2 1 1 1 1 0 0 0 0 0 0 0 0 0 0 0 0 0 0 0 0 0 0 0 0 0 0 0 0
1 1 1 1 1 1 1 1 1 1 1 2 3 3 2 2 1 1 1 1 0 0 0 0 0 0 0 0 0 0 0 0 0 0 0 0 0 0 0 0 0 0 0
0 0 1 1 1 1 1 1 1 1 1 2 3 3 3 2 1 1 1 1 0 0 0 0 0 0 0 0 0 0 0 0 0 0 0 0 0 0 0 0 0 0 0
0 0 0 0 0 0 1 1 1 1 1 2 2 3 3 2 2 1 1 0 0 0 0 0 0 0 0 0 0 0 0 0 0 0 0 0 0 0 0 0 0 0 0
0 0 1 0 0 0 0 1 1 1 1 2 2 2 2 2 1 1 0 0 0 0 0 0 0 0 0 0 0 0 0 0 0 0 0 0 0 0 0 0 0 0 0
0 1 1 1 0 0 0 1 1 1 1 2 2 2 2 1 1 1 0 0 0 0 0 0 0 0 0 0 0 0 0 0 0 0 0 0 0 0 0 0 0 0 0
0 1 1 0 0 0 0 0 1 1 1 1 1 1 1 1 1 1 0 0 0 0 0 0 0 0 0 0 0 0 0 0 0 0 0 0 0 0 0 0 0 0 0
0 0 0 0 0 0 0 0 1 1 2 1 1 1 1 1 1 1 0 0 0 0 0 0 0 0 0 0 0 0 0 0 0 0 0 0 0 0 0 0 0 0 0
0 0 0 0 0 0 0 0 1 1 1 1 0 1 1 1 1 0 0 0 0 0 0 0 0 0 0 0 0 0 0 0 0 0 0 0 0 0 0 0 0 0 0
1 0 0 0 0 0 0 0 1 1 1 1 0 0 1 1 0 0 0 0 0 0 0 0 0 0 0 0 0 0 0 0 0 0 0 0 0 0 0 0 0 0 0
Wind_Speed
5 5 5 5 5 5 6 5 5 4 4 3 2 2 1 1 1 1 2 3 3 3 4 3 3 3 3 3 3 3 3 2 2 3 3 3 3 3 2 1 2 2 2
4 4 4 4 5 6 6 5 5 5 4 3 2 2 2 1 1 1 2 2 2 3 4 4 3 3 3 3 3 3 2 1 1 2 2 2 3 3 3 2 1 1 1
9 7 6 5 6 6 5 5 5 5 4 4 3 2 2 2 2 1 0 0 2 2 3 4 3 3 3 3 2 3 3 2 1 1 3 3 2 1 3 2 2 1 1
8 8 8 7 7 6 5 5 5 5 4 4 4 4 3 2 2 1 1 0 1 2 2 3 4 3 3 3 2 2 2 3 1 0 1 2 3 3 0 2 2 2 1
9 9 8 8 7 6 6 5 5 4 4 4 5 4 3 2 1 1 1 0 0 1 2 3 3 3 3 3 3 2 2 2 2 1 1 2 1 2 3 1 2 2 2
7 7 6 6 6 5 5 5 5 4 4 5 5 5 5 3 3 2 2 1 0 0 1 2 3 3 3 3 3 3 3 2 2 2 2 2 2 2 2 2 1 1 2
6 6 6 6 6 6 6 5 6 5 5 5 5 5 5 5 4 4 3 2 1 1 1 1 2 2 3 3 3 3 2 2 2 2 1 2 1 2 2 2 1 0 1
6 7 7 7 7 7 7 7 7 6 6 6 5 4 4 3 3 4 3 3 3 2 3 2 2 3 3 3 3 2 2 2 2 2 2 1 1 1 2 3 3 1 1
6 6 5 5 5 6 7 7 8 6 5 5 5 4 4 3 3 3 3 2 2 2 3 2 2 2 3 3 3 2 2 2 2 2 2 2 1 1 1 2 3 4 1
5 4 4 5 5 5 5 5 6 6 5 5 4 4 3 3 3 2 3 3 3 2 3 3 2 2 3 3 3 3 2 3 2 2 2 1 1 1 1 2 2 2 3
5 5 4 4 4 3 3 4 4 4 4 4 4 4 3 3 3 3 3 4 3 3 3 3 3 2 3 3 3 3 3 3 2 2 2 2 1 1 1 1 2 1 2
4 4 4 4 3 3 3 3 3 3 4 4 4 4 3 3 3 3 3 3 3 3 3 3 3 3 3 3 4 4 4 4 4 3 2 2 2 2 1 2 2 2 2
3 3 3 3 3 3 3 3 3 3 3 3 3 3 2 3 3 3 3 3 3 3 3 3 3 3 3 3 4 4 4 4 4 3 3 3 2 2 1 2 2 2 1
4 3 3 3 3 3 3 3 3 2 3 3 3 3 3 3 4 3 3 3 3 3 3 3 3 3 3 3 3 4 4 3 3 3 3 3 4 4 3 2 2 2 2
3 4 3 3 2 2 2 2 2 2 3 3 3 3 2 2 2 3 3 3 3 3 3 3 3 2 3 3 4 4 4 4 3 2 2 2 4 5 4 3 3 3 2
3 3 3 3 3 3 3 2 2 2 2 3 2 2 2 1 2 2 3 2 2 2 3 3 3 3 2 4 6 5 4 3 3 2 2 2 3 3 3 4 5 5 4
2 2 2 3 4 4 4 4 3 2 2 2 2 2 2 2 2 2 2 3 3 3 2 3 3 3 2 4 5 6 4 3 3 3 2 2 1 1 1 2 2 3 5
2 2 2 2 2 3 3 2 2 2 2 2 2 2 2 2 2 2 2 2 2 3 3 3 3 2 2 3 4 5 3 2 2 2 3 3 2 1 2 1 1 1 2
3 3 3 3 3 3 3 2 1 1 2 2 2 2 3 3 2 2 3 2 2 2 2 3 3 3 2 3 3 4 2 2 1 1 2 2 2 2 2 2 2 1 2
1 1 1 1 2 3 3 3 2 2 2 2 2 2 2 3 3 3 3 2 3 3 3 2 3 3 3 3 4 4 3 2 1 1 1 2 2 2 3 3 3 2 3
1 1 1 1 2 3 3 3 2 3 3 2 1 1 2 3 3 2 2 2 2 3 3 3 2 2 3 3 3 3 3 3 2 2 1 1 2 2 2 2 3 3 2
0 1 1 1 2 2 3 3 3 3 2 1 1 1 2 2 2 2 1 1 2 3 2 2 1 1 1 2 3 3 3 3 3 2 2 2 2 2 2 1 2 2 1
1 1 2 2 1 2 3 4 4 2 1 1 1 1 2 2 2 3 3 2 2 2 2 2 2 2 1 1 2 2 2 3 2 2 2 2 2 1 1 1 1 1 1
1 1 1 2 2 3 3 4 3 2 2 2 1 1 2 1 1 2 3 3 3 3 3 3 3 2 1 1 1 1 1 2 1 1 1 1 1 0 0 0 1 1 1
2 2 2 3 3 3 3 3 3 3 2 2 2 2 2 2 2 2 2 3 4 4 5 4 4 4 3 4 4 3 2 2 2 2 1 1 1 1 1 0 0 0 0
2 2 2 2 3 2 3 3 3 4 4 3 3 3 2 2 2 2 1 2 2 4 5 5 4 3 4 4 4 4 3 3 4 3 2 1 1 1 1 1 1 1 1
Wind_Direction
186 163 159 152 144 139 134 128 127 131 124 116 122 121 124 128 101 111 120 118 116 115 108 104 101 98 101 105 108 106 88 69 84 80 46 21 29 41 44 63 79 73 77
182 171 150 143 148 151 149 140 138 140 136 140 151 152 146 147 132 108 106 119 125 137 133 127 123 115 108 101 99 104 100 78 76 111 99 39 4 4 13 27 69 67 67
184 177 161 157 154 154 159 153 153 150 142 132 117 93 71 55 45 44 69 144 140 147 140 140 131 127 123 128 128 128 125 132 48 102 132 137 193 307 341 2 19 30 67
179 178 165 162 166 165 159 154 156 147 144 137 135 138 137 149 193 189 199 251 145 139 150 148 140 139 133 136 146 135 135 136 142 42 59 131 152 149 323 334 342 357 43
177 176 172 170 169 164 161 164 161 155 155 150 146 144 141 157 156 129 124 93 55 128 168 154 145 147 146 152 147 136 136 148 156 155 128 89 76 107 135 229 315 341 330
174 172 172 165 164 162 164 166 162 163 163 153 151 152 153 155 143 151 164 170 92 39 123 148 150 154 155 162 166 162 157 161 151 146 146 149 147 161 144 166 227 277 303
164 166 168 172 171 167 170 168 164 169 172 164 167 170 169 165 170 178 180 175 181 217 201 151 166 167 176 176 165 156 162 165 157 163 166 160 168 160 150 143 168 223 301
165 174 178 179 178 176 173 171 174 176 176 175 180 179 178 175 183 187 184 185 193 203 196 169 175 182 178 176 162 155 170 158 157 156 148 142 164 153 155 154 147 113 342
171 178 177 176 176 179 179 175 171 170 178 182 179 180 183 182 188 193 186 183 190 193 188 180 179 190 180 174 164 164 174 157 157 155 146 139 166 155 148 144 149 150 170
168 170 175 180 180 182 179 168 169 175 179 178 181 183 189 190 184 168 183 189 192 184 187 194 184 194 194 180 167 174 168 149 159 158 143 139 156 145 134 144 144 147 159
170 174 178 182 179 173 163 161 165 168 174 179 182 181 191 192 177 180 196 193 189 184 185 190 185 187 192 183 171 179 167 160 165 164 151 166 158 144 145 140 139 138 141
174 167 165 163 160 164 165 169 167 167 179 179 176 184 184 177 178 190 197 184 178 184 185 179 178 187 190 183 178 180 174 169 173 180 165 189 171 156 163 155 166 174 171
150 137 136 158 171 169 168 175 180 179 172 166 176 187 186 186 195 198 194 179 173 172 176 173 181 192 193 188 185 179 174 173 175 176 177 193 173 184 191 178 182 190 179
155 146 155 174 181 172 168 168 183 177 161 160 171 187 202 207 205 200 190 185 180 177 185 187 189 192 192 185 179 172 168 171 177 181 183 189 186 192 194 189 190 175 153
159 167 172 177 172 161 163 163 175 174 167 160 174 202 210 212 203 193 191 191 185 188 184 176 181 190 192 188 173 167 167 172 175 187 205 213 204 198 192 180 180 163 154
168 172 181 176 177 183 183 178 189 191 168 174 200 212 203 207 209 200 187 179 179 182 168 179 184 191 203 192 178 166 165 168 172 189 220 231 221 216 205 193 186 176 173
176 179 189 198 195 197 193 191 198 190 171 190 210 215 213 213 220 203 182 185 183 172 174 183 178 190 213 192 179 166 153 162 175 182 196 223 219 205 196 209 208 204 204
189 202 207 219 214 200 193 191 188 183 184 192 213 220 214 215 212 186 183 191 177 175 180 184 182 175 190 177 171 154 143 148 172 185 191 193 217 198 175 174 205 237 242
203 205 205 207 198 193 190 172 171 179 187 214 225 225 213 202 195 194 200 198 179 182 182 178 173 172 191 177 163 144 141 150 187 201 189 193 210 235 193 159 168 225 284
189 192 188 176 190 203 178 162 184 181 209 237 240 228 213 200 199 203 204 199 184 193 183 177 179 178 189 187 174 157 150 163 188 214 219 210 209 213 183 172 174 209 251
182 168 165 186 211 200 176 178 190 209 221 231 236 213 205 203 194 192 198 185 179 175 177 174 188 188 186 189 187 174 163 179 182 192 222 232 218 211 202 183 186 217 229
187 180 186 228 230 193 173 184 213 226 216 198 207 199 202 200 175 162 172 175 175 168 174 168 178 205 203 191 203 193 174 161 165 194 207 215 213 217 213 207 214 209 171
255 231 197 219 245 208 178 192 225 215 184 175 216 219 199 192 180 175 174 175 178 180 192 186 197 212 213 218 215 201 190 176 164 188 193 203 211 218 218 208 172 145 141
277 256 210 216 236 227 203 203 213 199 177 190 231 231 198 202 213 191 180 180 187 191 196 202 204 206 206 211 194 180 166 150 149 165 171 127 104 110 114 109 117 145 174
277 247 219 219 232 230 220 213 199 182 188 206 223 232 217 201 212 209 205 202 208 201 197 202 201 193 208 221 200 175 183 181 176 141 103 82 71 56 40 28 37 164 162
272 260 243 229 230 221 226 222 197 181 185 208 222 225 212 208 207 200 246 276 236 231 222 210 204 213 217 197 189 192 184 169 151 134 148 173 187 201 208 214 247 246 232